Flag for U.S.A. Weather past 2 weeks in Springfield, Massachusetts, U.S.A.

Now
50 °F

Light rain. Overcast.


Feels Like: 43 °F
Forecast: 48 / 52 °F
Wind: 21 mph from North

Location: Barnes Municipal Airport

Current Time: Oct 23, 2014 at 11:54:17 AM

Latest Report: Oct 23, 2014 at 10:53 AM


Visibility: 10 mi

Pressure: 29.68 "Hg

Humidity: 89%

Dew point: 47 °F

Location of SpringfieldLocation

Historic Weather in Springfield — Graph

°F

Springfield temperature yesterday

Maximum temperature yesterday: 53 °F (at 12:53 AM)
Minimum temperature yesterday: 49 °F (at 8:55 PM)
Average temperature yesterday: 52 °F

Past Weeks' High & Low Weather Summary

 TemperatureHumidityPressure
High78 °F (Oct 15, 1:53 PM)97% (Oct 9, 9:53 PM)30.36 "Hg (Oct 9, 9:53 PM)
Low31 °F (Oct 20, 3:53 AM)34% (Oct 9, 1:53 PM)29.51 "Hg (Oct 18, 2:53 PM)
Average55 °F77%29.96 "Hg
* Reported Oct 8 10:53 AM — Oct 23 10:53 AM, Springfield, Weather by CustomWeather, © 2014

Note: Actual official high and low records may vary slightly from our data, if they occured in-between our weather recording intervals... More about our weather records

Advertising

Springfield weather history for previous 24 hours

 ConditionsComfort  
Time TempWeatherWind HumidityBarometerVisibility
10:53 AM
Oct 23
50 °FLight rain. Overcast.21 mph89%29.68 "Hg10 mi
9:53 AM50 °FLight rain. Cloudy.15 mph86%29.70 "Hg10 mi
8:53 AM49 °FRain. Fog.18 mph90%29.71 "Hg6 mi
7:53 AM50 °FLight rain. Mostly cloudy.17 mph86%29.71 "Hg10 mi
6:53 AM50 °FLight rain. Mostly cloudy.24 mph89%29.71 "Hg10 mi
5:53 AM50 °FRain. Mostly cloudy.17 mph89%29.72 "Hg8 mi
4:53 AM50 °FLight rain. Mostly cloudy.20 mph86%29.73 "Hg8 mi
3:53 AM50 °FLight rain. Mostly cloudy.16 mph86%29.75 "Hg10 mi
2:53 AM49 °FLight rain. Overcast.18 mph90%29.77 "Hg9 mi
1:53 AM49 °FRain. Fog.13 mph90%29.85 "Hg6 mi
12:51 AM49 °FLight rain. Overcast.18 mph90%29.82 "Hg7 mi
12:02 AM49 °FHeavy rain. Fog.16 mph90%29.85 "Hg6 mi
10:53 PM
Oct 22
49 °FHeavy rain. Fog.20 mph90%29.84 "Hg5 mi
10:00 PM49 °FOvercast.15 mph90%29.84 "Hg10 mi
8:55 PM49 °FRain. Overcast.17 mph90%29.87 "Hg7 mi
7:53 PM50 °FLight rain. Fog.17 mph89%29.88 "Hg2 mi
6:53 PM50 °FLight rain. Fog.16 mph89%29.90 "Hg2 mi
5:55 PM51 °FLight rain. Fog.15 mph86%29.91 "Hg2 mi
4:53 PM51 °FLight rain. Fog.16 mph89%29.92 "Hg2 mi
3:53 PM52 °FLight rain. Mostly cloudy.17 mph83%29.94 "Hg10 mi
2:53 PM51 °FLight rain. Mostly cloudy.9 mph89%29.95 "Hg8 mi
1:58 PM52 °FLight rain. Fog.13 mph86%29.97 "Hg5 mi
12:53 PM53 °FOvercast.10 mph77%29.99 "Hg10 mi
11:53 AM53 °FOvercast.16 mph77%30.02 "Hg10 mi
Weather by CustomWeather, © 2014

See weather overviewHow to use our weather pages